TimeCET,TemperatureF,Dew PointF,Humidity,Sea Level PressureIn,VisibilityMPH,Wind Direction,Wind SpeedMPH,Gust SpeedMPH,PrecipitationIn,Events,Conditions,WindDirDegrees,DateUTC
12:00 AM,42.8,42.8,100,29.62,0.2,North,2.3,-,N/A,Fog-Rain,Light Rain,10,2013-03-07 23:00:00
12:30 AM,42.8,42.8,100,29.62,0.2,Variable,2.3,-,N/A,Fog-Rain,Light Rain,0,2013-03-07 23:30:00
1:00 AM,43,42,97,29.65,0,NNE,4.5,,,Rain,Light Rain,30,2013-03-08 00:00:00
1:00 AM,42.8,42.8,100,29.62,0.2,NE,5.8,-,N/A,Fog-Rain,Light Rain,40,2013-03-08 00:00:00
1:30 AM,41.0,41.0,100,29.62,0.2,NNW,4.6,-,N/A,Fog-Rain,Light Rain,340,2013-03-08 00:30:00
2:00 AM,41.0,41.0,100,29.62,0.1,NNW,4.6,-,N/A,Fog,Fog,340,2013-03-08 01:00:00
2:30 AM,41.0,41.0,100,29.62,0.1,North,4.6,-,N/A,Fog,Fog,10,2013-03-08 01:30:00
3:00 AM,41.0,41.0,100,29.62,0.1,Variable,2.3,-,N/A,Fog,Fog,0,2013-03-08 02:00:00
3:30 AM,41.0,41.0,100,29.62,0.1,NNE,2.3,-,N/A,Fog,Fog,20,2013-03-08 02:30:00
4:00 AM,41.0,41.0,100,29.62,0.1,NNW,2.3,-,N/A,Fog,Fog,340,2013-03-08 03:00:00
4:30 AM,41.0,41.0,100,29.62,0.1,North,2.3,-,N/A,Fog,Fog,10,2013-03-08 03:30:00
5:00 AM,41.0,41.0,100,29.62,0.2,Calm,Calm,-,N/A,Fog,Fog,0,2013-03-08 04:00:00
5:30 AM,41.0,41.0,100,29.62,0.1,North,2.3,-,N/A,Fog,Fog,360,2013-03-08 04:30:00
6:00 AM,41.0,41.0,100,29.62,0.2,NNW,2.3,-,N/A,Fog,Fog,340,2013-03-08 05:00:00
6:30 AM,41.0,39.2,93,29.62,0.2,North,2.3,-,N/A,Fog,Fog,360,2013-03-08 05:30:00
7:00 AM,40,40,100,29.66,0,North,4.5,,,Fog,Heavy Fog,10,2013-03-08 06:00:00
7:00 AM,41.0,39.2,93,29.62,0.2,North,3.5,-,N/A,Fog,Fog,10,2013-03-08 06:00:00
7:30 AM,41.0,41.0,100,29.62,0.1,North,2.3,-,N/A,Fog,Fog,10,2013-03-08 06:30:00
8:00 AM,41.0,41.0,100,29.62,0.1,NE,2.3,-,N/A,Fog,Fog,40,2013-03-08 07:00:00
8:16 AM,41.0,41.0,100,29.62,0.3,NE,2.3,-,N/A,Fog,Fog,50,2013-03-08 07:16:00
8:30 AM,41.0,41.0,100,29.62,0.4,NE,2.3,-,N/A,Fog,Fog,50,2013-03-08 07:30:00
9:00 AM,41.0,41.0,100,29.62,0.6,NNE,4.6,-,N/A,Fog,Fog,30,2013-03-08 08:00:00
9:12 AM,41.0,41.0,100,29.62,0.7,NE,4.6,-,N/A,,Overcast,50,2013-03-08 08:12:00
9:30 AM,42.8,41.0,93,29.62,0.8,NE,4.6,-,N/A,,Overcast,40,2013-03-08 08:30:00
10:00 AM,42.8,41.0,93,29.62,0.9,NE,3.5,-,N/A,,Overcast,40,2013-03-08 09:00:00
10:30 AM,42.8,42.8,100,29.62,0.8,ENE,4.6,-,N/A,,Overcast,60,2013-03-08 09:30:00
11:00 AM,42.8,42.8,100,29.62,1.0,ENE,5.8,-,N/A,,Overcast,70,2013-03-08 10:00:00
11:30 AM,42.8,42.8,100,29.62,1.1,NE,4.6,-,N/A,,Overcast,50,2013-03-08 10:30:00
12:00 PM,42.8,42.8,100,29.62,1.2,NE,5.8,-,N/A,,Overcast,50,2013-03-08 11:00:00
12:30 PM,44.6,42.8,93,29.62,1.5,NE,6.9,-,N/A,,Overcast,50,2013-03-08 11:30:00
1:00 PM,44,43,96,29.65,2,ENE,6.7,,,,Mist,60,2013-03-08 12:00:00
1:00 PM,44.6,42.8,93,29.62,1.6,NE,5.8,-,N/A,,Overcast,40,2013-03-08 12:00:00
1:30 PM,44.6,42.8,93,29.62,1.5,NE,8.1,-,N/A,,Overcast,40,2013-03-08 12:30:00
2:00 PM,44.6,42.8,93,29.59,1.6,NE,8.1,-,N/A,,Overcast,40,2013-03-08 13:00:00
2:30 PM,44.6,42.8,93,29.62,1.9,NE,6.9,-,N/A,,Overcast,40,2013-03-08 13:30:00
2:49 PM,44.6,42.8,93,29.62,-9999.0,NE,6.9,-,N/A,,Overcast,40,2013-03-08 13:49:00
3:00 PM,44.6,42.8,93,29.62,2.2,NE,5.8,-,N/A,,Overcast,40,2013-03-08 14:00:00
3:30 PM,44.6,42.8,93,29.62,2.5,NE,5.8,-,N/A,,Overcast,50,2013-03-08 14:30:00
4:00 PM,44.6,42.8,93,29.62,3.1,ENE,5.8,-,N/A,,Overcast,60,2013-03-08 15:00:00
4:30 PM,44.6,42.8,93,29.62,3.7,East,5.8,-,N/A,,Overcast,80,2013-03-08 15:30:00
5:00 PM,44.6,42.8,93,29.62,3.7,ENE,4.6,-,N/A,,Overcast,60,2013-03-08 16:00:00
5:30 PM,44.6,42.8,93,29.62,3.7,NE,4.6,-,N/A,,Overcast,50,2013-03-08 16:30:00
6:00 PM,44.6,41.0,87,29.62,3.7,NE,4.6,-,N/A,,Overcast,50,2013-03-08 17:00:00
6:30 PM,44.6,42.8,93,29.62,4.3,NE,5.8,-,N/A,,Overcast,40,2013-03-08 17:30:00
7:00 PM,42,40,92,29.66,3,NNE,8.9,,,,Mist,20,2013-03-08 18:00:00
7:00 PM,42.8,41.0,93,29.62,3.1,North,8.1,-,N/A,,Overcast,10,2013-03-08 18:00:00
7:16 PM,41.0,41.0,100,29.62,-9999.0,NNE,8.1,-,N/A,,Overcast,20,2013-03-08 18:16:00
7:30 PM,41.0,41.0,100,29.62,2.2,NNE,6.9,-,N/A,,Overcast,20,2013-03-08 18:30:00
7:48 PM,41.0,39.2,93,29.62,1.9,North,6.9,-,N/A,,Light Drizzle,10,2013-03-08 18:48:00
8:00 PM,41.0,39.2,93,29.62,1.7,North,6.9,-,N/A,,Light Drizzle,10,2013-03-08 19:00:00
8:30 PM,41.0,39.2,93,29.62,1.6,North,6.9,-,N/A,,Overcast,10,2013-03-08 19:30:00
9:00 PM,39.2,39.2,100,29.62,1.6,North,5.8,-,N/A,,Overcast,360,2013-03-08 20:00:00
9:17 PM,39.2,39.2,100,29.62,1.2,North,4.6,-,N/A,,Light Drizzle,360,2013-03-08 20:17:00
9:30 PM,39.2,39.2,100,29.62,1.2,North,4.6,-,N/A,,Light Drizzle,360,2013-03-08 20:30:00
10:00 PM,39.2,39.2,100,29.65,1.2,North,5.8,-,N/A,,Light Drizzle,360,2013-03-08 21:00:00
10:30 PM,39.2,37.4,93,29.62,1.2,North,3.5,-,N/A,,Light Drizzle,350,2013-03-08 21:30:00
11:00 PM,39.2,37.4,93,29.65,1.1,North,3.5,-,N/A,,Light Drizzle,360,2013-03-08 22:00:00
11:30 PM,37.4,37.4,100,29.65,0.7,North,3.5,-,N/A,,Light Drizzle,360,2013-03-08 22:30:00